Location: Sabalos
(43.2860°N, 0.1414°E)
Time: 10:15:46
(UTC+00:00)

USA 267 - Pass Details

Date: 05 July 2020
Orbit: 1102 x 1106 km, 123.0° (Epoch: 02 August)

Event Time Altitude Azimuth Distance (km) Brightness Sun altitude
Exits shadow 23:21:18 45° 165° (SSE) 1,465 3.4 -23.3°
Maximum altitude 23:23:17 64° 225° (SW) 1,208 3.2 -23.4°
Drops below altitude 10° 23:29:46 10° 306° (NW) 2,965 6.1 -23.6°
Sets 23:32:18 0° 310° (NW) 3,926 6.9 -23.6°
